{"data":{"norad_id":49742,"intl_designator":"2021-115U","name":"STARLINK-3202","alt_names":[],"object_type":"PAYLOAD","status":"ACTIVE","operator":null,"country":"US","launch_date":"2021-12-02","launch_site_code":"AFETR","launch_vehicle":null,"mission":null,"orbit_class":"UNKNOWN","rcs_meters":null,"size_class":null,"mass_kg":null,"dimensions":null,"purposes":["comms"],"wikipedia_slug":null,"has_3d_model":false,"image_url":null,"decayed_at":null,"tle_current":{"epoch":"2026-05-25T01:43:41.359008Z","epoch_age_seconds":72863,"freshness":"FRESH","line1":"1 49742U 21115U   26145.07200647 -.00000354  00000+0 -41722-5 0  9994","line2":"2 49742  53.2156 166.2266 0001091  77.1731 282.9383 15.08837394247068","mean_motion":15.08837394,"eccentricity":0.0001091,"inclination_deg":53.2156,"raan_deg":166.2266,"arg_perigee_deg":77.1731,"mean_anomaly_deg":282.9383,"bstar":-4.1722e-6,"rev_number":24706,"period_min":95.437719513465,"perigee_km":538.99661285555,"apogee_km":540.5060960945,"semimajor_km":6917.888354475,"source":"CELESTRAK","updated_at":"2026-05-25T13:38:16.834826Z"}}}